Regional Weather Roundup
Issued by NWS Grand Forks, ND

Home | Current Version | Previous Version | Text Only | Print | Product List | Glossary Off
Versions: 1 2 3 4 5 6 7 8 9 10 11 12 13 14 15 16 17 18 19 20 21 22 23 24 25 26 27 28 29 30 31 32 33 34 35 36 37 38 39 40 41 42 43 44 45 46 47 48 49 50

000
ASUS43 KFGF 210931
RWRFGF
PRAIRIE TO PINES  WEATHER ROUNDUP
NATIONAL WEATHER SERVICE EASTERN NORTH DAKOTA/GRAND FORKS ND
400 AM CDT MON MAY 21 2018

 **SATELLITE DATA USED TO AUGMENT SKY COVER AT AUTOMATED STATIONS**
 *****  WEATHER ACROSS EASTERN NORTH DAKOTA  *****

CITY           SKY/WX    TMP DP  RH WIND       PRES   REMARKS
GRAND FORKS    FAIR      43  37  79 S3        30.09F
GRAND FRKS AFB FAIR      43  37  77 CALM      30.09F
GRAND FRKS NWS   N/A     49  36  61 S2        30.07S
DEVILS LAKE    FAIR      46  41  82 CALM      30.10F
FARGO          FAIR      47  39  74 CALM      30.09F
WAHPETON ARPT  FAIR      50  32  50 E5        30.09F
$$

 ***** WEATHER ACROSS CENTRAL AND WESTERN NORTH DAKOTA  *****

CITY           SKY/WX    TMP DP  RH WIND       PRES   REMARKS
BISMARCK       FAIR      43  40  89 NE7       30.06F
MINOT          FAIR      46  35  65 CALM      30.05S
JAMESTOWN      FAIR      48  37  65 SE5       30.08F
MINOT AFB      FAIR      42  35  76 S3        30.04S
GARRISON         N/A     41  35  79 CALM      30.05F
WILLISTON      FAIR      53  37  54 S6        30.00F
DICKINSON      FAIR      39  34  82 SE7       30.01F
HETTINGER      FAIR      40  32  73 E6        30.04F
$$

 *****  OTHER AIRPORT OBSERVATIONS IN OUR AREA  *****

CITY           SKY/WX    TMP DP  RH WIND       PRES   REMARKS
WALHALLA       FAIR      52  36  54 CALM      30.08S
GRAFTON AIRPOR FAIR      43  39  87 S3        30.11S
VALLEY CITY AR FAIR      48  34  57 CALM      30.11S
CANDO          FAIR      43  43 100 SE5       30.11S
CAVALIER APRT    N/A     45  39  81 CALM      30.09S
GWINNER          N/A     52  36  54 CALM      30.08F
SHEYENNE NWR     N/A     48  33  55 E3        29.95S
ROLLA          FAIR      46  36  66 S9        30.09F
 ***** THE ABOVE OBSERVATIONS ARE NON NWS ARE NOT QUALITY
       CONTROLLED AND MAY MIS-REPORT RAIN FOR SNOW...
$$

  *****  WEATHER ACROSS NORTHERN MINNESOTA  *****

CITY           SKY/WX    TMP DP  RH WIND       PRES   REMARKS
FLAG ISLAND    FAIR      52  37  58 S5        30.11R
WARROAD        FAIR      48  37  66 SW5       30.12F
ROSEAU         FAIR      46  39  76 S5        30.12S
HALLOCK        FAIR      46  36  66 SE7       30.10S
THF RVR FALLS  FAIR      50  35  56 SE6       30.13S
BAUDETTE       FAIR      46  34  62 S3        30.13S
WASKISH        FAIR      36  32  87 CALM      30.14S
CROOKSTON      FAIR      46  37  71 SE8       30.11F
STEPHEN NDAWN    N/A     46  36  66 S3          N/A
GREENBUSH NDAW   N/A     45  37  76 S1          N/A
$$
  *****  WEATHER ACROSS CENTRAL AND WEST MINNESOTA  *****

CITY           SKY/WX    TMP DP  RH WIND       PRES   REMARKS
FOSSTON        FAIR      45  32  61 CALM      30.13F
BEMIDJI        FAIR      36  34  92 CALM      30.14S
PARK RAPIDS    FAIR      40  36  86 CALM      30.13F
ELBOW LAKE     FAIR      55  37  52 SE9       30.11S
WADENA         FAIR      45  36  70 CALM      30.12F
DETROIT LAKES  FAIR      48  36  61 CALM      30.13F
MOORHEAD       FAIR      50  34  53 E5        30.10F
FERGUS FALLS   FAIR      52  36  54 E5        30.07F
MORRIS MN      CLOUDY    57  36  44 E6        30.09S
STAPLES        FAIR      41  37  87 CALM      30.13S
$$
  *****  WEATHER ELSEWHERE ACROSS MINNESOTA  *****

CITY           SKY/WX    TMP DP  RH WIND       PRES   REMARKS
DULUTH         FAIR      39  31  72 CALM      30.17R
INTRNTL FALLS  FAIR      37  36  96 CALM      30.14S
ELY            FAIR      36  34  93 CALM      30.18R
CLOQUET        FAIR      36  28  75 CALM      30.17R
WHEATON        FAIR      52  34  50 E7        30.10F
BRAINERD       FAIR      45  36  70 CALM      30.15R
HIBBING        FAIR      32  31  96 NW3       30.17R
ALEXANDRIA     FAIR      55  36  48 E8        30.12F
SAINT CLOUD    CLOUDY    51  35  54 NE3       30.13S
MINNEAPOLIS    CLOUDY    61  46  57 SE13      30.13S
$$

  *****  WEATHER ACROSS SOUTH DAKOTA  *****

CITY           SKY/WX    TMP DP  RH WIND       PRES   REMARKS
SIOUX FALLS    CLOUDY    55  54  96 E5        30.06S FOG
BROOKINGS      LGT RAIN  55  54  94 E5        30.07F
WATERTOWN      CLOUDY    55  52  89 CALM      30.06F
HURON          CLOUDY    54  53  97 CALM      30.06F
SISSETON         N/A     52  41  66 CALM      30.07F
ABERDEEN       CLOUDY    58  41  53 SE8       30.06F
MITCHELL       CLOUDY    55  52  89 E3        30.07S
PIERRE         MOCLDY    49  43  80 NE6       30.03F
MOBRIDGE       CLOUDY    55  47  74 CALM      30.03F
RAPID CITY     FAIR      40  36  86 SE5       30.01F
$$

  *****  SOME WEATHER IN NEARBY STATES *****

CITY           SKY/WX    TMP DP  RH WIND       PRES   REMARKS
GLASGOW MT     FAIR      50  41  71 E13       29.89F
GREAT FALLS MT MOCLDY    51  46  83 W7        29.90R
CHEYENNE WY    FAIR      43  42  97 S6        30.06F
SCOTTSBLUFF NE FAIR      46  45  96 E7        30.05F
OMAHA NE       CLOUDY    57  54  89 NW6       30.03F FOG
DES MOINES IA  CLOUDY    59  57  93 NE7       30.02F FOG
DAVENPORT IA   LGT RAIN  53  51  93 E12       30.10F
CHICAGO IL     CLOUDY    50  43  77 NE8       30.13F
EAU CLAIRE WI  CLOUDY    49  45  86 NE5       30.17R
LA CROSSE WI   CLOUDY    58  50  75 SE5       30.14F
$$

  *****  SOME NATIONAL WEATHER *****

CITY           SKY/WX    TMP DP  RH WIND       PRES   REMARKS
LA GUARDIA NY  FAIR      61  53  75 NE3       30.12R
RALEIGH NC     MOCLDY    69  69 100 SW5       30.10R
ATLANTA GA     MOCLDY    66  64  93 SE5       30.13F
NEW ORLEANS LA FAIR      72  72 100 CALM      29.97F
OKLAHOMA CITY  FAIR      60  58  92 N5        30.06R
ALBUQUERQUE NM FAIR      63  47  55 E8        30.06R
SALT LAKE CITY FAIR      58  48  69 CALM      29.88F
LOS ANGELES CA CLOUDY    60  53  77 W5        29.87F
BOISE ID       CLOUDY    57  55  93 CALM      29.91R
SEATTLE WA     MOCLDY    56  49  77 N7        30.06F
$$

*** WEATHER ACROSS MANITOBA...SASKATCHEWAN AND ONTARIO ***
                ***ONTARIO***

CITY           SKY/WX    TMP DP  RH WIND       PRES   REMARKS
GERALDTON      CLEAR     43  34  70 SW3       30.10R
THUNDER BAY    CLEAR     37  34  87 VRB5      30.16R
SIOUX LOOKOUT  CLEAR     45  32  61 S5        30.11R
TORONTO        CLEAR     45  37  76 NW7       30.21R
BIG TROUT LK   CLOUDY    41  36  81 SE3       30.04F
PICKLE LAKE    NOT AVBL
DRYDEN         CLEAR     52  32  46 SW7       30.12R
KENORA         CLEAR     54  36  50 S5        30.11S
$$
                *** MANITOBA***

CITY           SKY/WX    TMP DP  RH WIND       PRES   REMARKS
BRANDON        CLEAR     48  32  53 W3        30.06S
DAUPHIN        CLEAR     55  32  41 SW9       30.01S
ISLAND LAKE    CLEAR     45  39  81 SE5       29.96S
PILOT MOUND      N/A     41  34  75 S5          N/A
THE PAS        MOCLDY    54  36  50 SE6       29.88S
THOMPSON       PTCLDY    39  34  81 E5        29.89
WINNIPEG       CLEAR     54  36  50 S9        30.07S
LYNN LAKE      CLEAR     37  32  81 E7        29.85F
CHURCHILL      CLOUDY    23  18  80 N6        30.13S WCI  16
GILLAM         PTCLDY    30  27  86 E7        30.03S WCI  23
$$
                ***SASKATCHEWAN***

CITY           SKY/WX    TMP DP  RH WIND       PRES   REMARKS
ESTEVAN        CLEAR     41  30  65 SE8       30.02S
KINDERSLEY     CLEAR     55  45  67 S6        29.76F
LLOYDMINSTER   PTCLDY    52  43  71 N3        29.74S
PRINCE ALBERT  PTCLDY    54  36  50 NE3       29.83F
REGINA         CLEAR     48  28  46 SE15      29.93F
YORKTON        MOCLDY    50  34  53 S9        29.98S
N. BATTLEFORD  CLEAR     52  43  71 SE8       29.77S
LA RONGE       PTCLDY    46  37  71 NE3       29.82S
SASKATOON      PTCLDY    59  37  44 S15G22    29.81F
SWIFT CURRENT  CLEAR     54  41  62 S16       29.84F
$$
NOTE: THESE ARE AUTOMATED STATIONS WITH LIMITED QUALITY CONTROL
      "FAIR" INDICATES FEW OR NO CLOUDS BELOW 12,000 FEET WITH NO
      SIGNIFICANT WEATHER AND/OR OBSTRUCTIONS TO VISIBILITY.
      SKY/WX - SKY CONDITION AND SIGNIFICANT WEATHER.
      TMP - AIR TEMPERATURE.    DP   - DEWPOINT TEMPERATURE.
      RH  - RELATIVE HUMIDITY.  PRES - PRESSURE.
      HX  - HEAT INDEX.         WCI  - WIND CHILL INDEX.
$



USA.gov is the U.S. government's official web portal to all federal, state and local government web resources and services.